Regional Weather Roundup
Issued by NWS

Home | Current Version | Previous Version | Graphics & Text | Print | Product List | Glossary On
Versions: 1 2 3 4 5 6 7 8 9 10 11 12 13 14 15 16 17 18 19 20 21 22 23 24 25 26 27 28 29 30 31 32 33 34 35 36 37 38 39 40 41 42 43 44 45 46 47 48 49 50
000
ASUS43 KMKX 281411
RWRWI

WISCONSIN REGIONAL WEATHER ROUNDUP
NATIONAL WEATHER SERVICE MILWAUKEE/SULLIVAN WI
900 AM CDT WED SEP 28 2016

NOTE: "FAIR" INDICATES FEW OR NO CLOUDS BELOW 12,000 FEET WITH NO
SIGNIFICANT WEATHER AND/OR OBSTRUCTIONS TO VISIBILITY.

WIZ001-002-006>008-014>016-023>028-281500-
NORTHWEST WISCONSIN

CITY           SKY/WX    TMP DP  RH WIND       PRES   REMARKS
SUPERIOR ARPT  SUNNY     54  48  79 N9G17     30.13R
ASHLAND        CLOUDY    53  50  89 NE15      30.09R
HAYWARD        CLOUDY    52  49  89 N14       30.08R
SIREN          CLOUDY    52  49  89 N8        30.10R
CUMBERLAND     CLOUDY    52  48  87 N14G20    30.07R
RICE LAKE      CLOUDY    53  49  87 NW10      30.07R
CHETEK         NOT AVBL
LADYSMITH      PTSUNNY   55  52  88 N13       30.04R
EAU CLAIRE     CLOUDY    54  52  93 N10       30.02R
MENOMONIE      CLOUDY    54  54 100 N13       30.04R
NEW RICHMOND   CLOUDY    53  50  90 N8        30.09R
OSCEOLA        CLOUDY    54  54 100 N10       30.12R
$$

WIZ003>005-009-010-017-018-281500-
NORTH CENTRAL WISCONSIN

CITY           SKY/WX    TMP DP  RH WIND       PRES   REMARKS
MANITOWISH WTR NOT AVBL
ARBOR VITAE    CLOUDY    52  48  87 NE8       30.02R
WOODRUFF       CLOUDY    52  48  87 NE8       30.02R
RHINELANDER    CLOUDY    52  51  97 NE8G18    30.00R
EAGLE RIVER    CLOUDY    50  48  93 NE10G25   30.02R
LAND O LAKES   CLOUDY    51  48  89 E9        30.04R
PHILLIPS       CLOUDY    52  49  92 NE17G24   30.01R
TOMAHAWK       CLOUDY    51  49  93 N6        30.00R
MEDFORD        CLOUDY    52  52 100 N9        29.98R
MERRILL        CLOUDY    54  51  92 NE9       29.98R
$$

WIZ029-030-035-036-043>047-281500-
CENTRAL WISCONSIN

CITY           SKY/WX    TMP DP  RH WIND       PRES   REMARKS
WAUSAU         MOSUNNY   54  49  83 N8        29.95R
MOSINEE        PTSUNNY   52  54 100 N10       29.97R
MARSHFIELD     CLOUDY    54  49  83 N8        29.96R
STEVENS POINT  PTSUNNY   52  50  90 N8        29.96R
WAUPACA        PTSUNNY   55  53  90 N9        29.93R
WAUTOMA        CLOUDY    53  50  89 N8        29.94R
WISC RAPIDS    CLOUDY    54  51  90 N10       29.96R
CAMP DOUGLAS   PTSUNNY   54  52  94 N9        29.95R
$$

WIZ011>013-019>022-031-037>040-048>050-281500-
NORTHEAST WISCONSIN

CITY           SKY/WX    TMP DP  RH WIND       PRES   REMARKS
ANTIGO         CLOUDY    52  49  90 NE7G18    29.97R
SHAWANO        CLOUDY    54  50  88 N12       29.95R
OCONTO         NOT AVBL
STURGEON BAY   PTSUNNY   54  52  93 NE7       29.94R
GREEN BAY      PTSUNNY   53  52  96 N13       29.92R
MANITOWOC      LGT RAIN  53  51  93 N7G30     29.90R
APPLETON       PTSUNNY   54  52  94 N9        29.90R
CLINTONVILLE   NOT AVBL
OSHKOSH        CLOUDY    53  48  83 N12       29.91R
$$

WIZ032>034-041-042-053>061-281500-
SOUTHWEST WISCONSIN

CITY           SKY/WX    TMP DP  RH WIND       PRES   REMARKS
LA CROSSE      CLOUDY    57  51  80 N14       29.98R
SPARTA         CLOUDY    52  51  95 N7        29.98R
VIROQUA        CLOUDY    51  51 100 N10       29.96R
BOSCOBEL       CLOUDY    54  50  86 N10       29.96R
PRAIRIE DU CHI CLOUDY    52  48  84 NW9G17    29.96S
PLATTEVILLE    CLOUDY    51  51 100 N10       29.94R
$$

WIZ056-057-062-063-064-067-068-281500-
SOUTH CENTRAL WISCONSIN

CITY           SKY/WX    TMP DP  RH WIND       PRES   REMARKS
REEDSBURG      NOT AVBL
BARABOO/DELLS  CLOUDY    51  50  95 N5        29.93R
LONE ROCK      CLOUDY    52  49  89 N6        29.95R FOG
MINERAL POINT  CLOUDY    52  50  93 NW9       29.94R
MADISON        CLOUDY    51  50  96 N8        29.91R
MIDDLETON      CLOUDY    53  53 100 N8        29.92R
WATERTOWN      CLOUDY    51  51 100 N8        29.90R
MONROE         CLOUDY    50  48  93 N7        29.91R
JANESVILLE     CLOUDY    54  50  87 N13       29.89R
$$

WIZ051-052-058>065-066-070>072-281500-
SOUTHEAST WISCONSIN

CITY           SKY/WX    TMP DP  RH WIND       PRES   REMARKS
MILWAUKEE      PTSUNNY   56  49  77 N13       29.88R
WAUKESHA       PTSUNNY   52  48  87 NW7       29.90R
MILWAUKEE/TIMM CLOUDY    52  46  82 N9        29.89R
RACINE         CLOUDY    52  48  86 N14       29.89R
BURLINGTON     CLOUDY    50  48  92 N8        29.89R
KENOSHA        PTSUNNY   52  48  86 N8        29.88R
FOND DU LAC    CLOUDY    53  50  89 N9        29.91R
SHEBOYGAN      LGT RAIN  53  50  89 N7        29.90R
WEST BEND      CLOUDY    50  48  93 N5        29.89R
JUNEAU         CLOUDY    51  49  92 N7        29.91R
$$

LSZ147-162-281500-
LAKE SUPERIOR

STATION/POSITION TIME  TEMP    WIND        PRES    WAVE
                       AIR SEA DIR/SP/G            HT/PER
                 (UTC) (F)     (DEG/KT/KT) (MB)    (FT/S)
W MID LAKE BUOY  1350   55 51   30/ 16/ 19 1018.6R   6/ 7
DEVILS ISLAND    1400   53      10/ 20/ 22 1019.9R
SAXON HARBOR     1320   56      30/ 15     1017.6R
$$

LMZ867-665-643>646-281500-
LAKE MICHIGAN

STATION/POSITION TIME  TEMP    WIND        PRES    WAVE
                       AIR SEA DIR/SP/G            HT/PER
                 (UTC) (F)     (DEG/KT/KT) (MB)    (FT/S)
CHAMBERS ISLAND  1300   58      50/ 10/ 13 1012.5R
N MID LAKE BUOY  1350   58 66   90/ 17/ 21 1013.5R   3/ 3
NORTHPORT PIER   1300   58      80/ 11/ 14 1013.2
SISTER BAY       1323   58        CALM       N/A
KEWAUNEE LAKESHO 1300   52     360/  4/  8 1011.1R
SHEBOYGAN LAKESH 1400   53     340/ 12/ 14 1012.1R
PORT WASHINGTON  1340   53     340/  4/  8 1012.9R
ATWATER BUOY     1400   52 53  340/ 10/ 12 1012.1R
MILWAUKEE LAKESH 1310   51     340/  8/ 10   N/A
S MID LAKE BUOY  1350   58 69   70/  6/  8 1010.5R   1
KENOSHA   LAKESH 1400   52     360/ 11/ 13 1011.5R
$$

TC  - TEMPERATURE IN CELSIUS
VSB - VISIBILITY IN STATUTE MILES
WCI - WIND CHILL INDEX
HX  - HEAT INDEX





USA.gov is the U.S. government's official web portal to all federal, state and local government web resources and services.